Etusivu
METAR-TAF:

METAR-TAF

Lentoasemat :

Bowers Field

Ellensburg, Washington, Yhdysvallat

Leveyspiiri: 47-02-01N, Pituuspiiri: 120-31-45W, korkeus merenpinnasta: 536 m

Tämänhetkinen sää

Tämä raportti tehtiin 29 minuuttia sitten, kello 22.53 UTC
Tuuli 20 kn luoteesta
Lämpötila 18°C
Kosteus 39%
Ilmanpaine 1022 hPa
Näkyvyys: 16.1 km
selkeää

METAR: KELN 272253Z AUTO 32020KT 10SM CLR 18/04 A3018 RMK AO2 PK WND 32029/2215 SLP228 T01780044

Aika: 16:22 (23:22 UTC)


TAF: puuttuu

Säähavainnot ja -ennusteet yli 4000 lentoasemalta (METAR- ja TAF-raportit).

Käytössä olevat sääasemat on merkitty karttaan keltaisilla ja punaisilla pisteillä.

Aseta hiiri pisteen päälle nähdäksesi sääaseman nimen.

Klikkaa sitten nähdäksesi säähavainnot ja -ennusteet.

Kartan vaihtaminen: klikkaa mustalla rastilla varustettuja vihreitä pisteitä, niin voit zoomata sisään; viivalla varustettua vihreää pistettä, niin voit zoomata ulos tai vihreitä nuolia, niin pääset viereisille kartoille.


METAR-TAF: